FW2541 Weather Reports


time (UTC)temp
F
wind
direction
speed
knots
gust
knots
rain 1hr
in
rain 24hr
in
rain mn
in
humidity
%
barometer
mb
20260507073015 54 0 2.6 7.0 0.00 0.07 0.01 53 1007.7
20260507070015 55 0 1.7 7.0 0.00 0.07 0.01 54 1007.0
20260507063016 56 0 1.7 5.2 0.00 0.07 0.01 55 1007.1
20260507060015 56 0 2.6 7.0 0.00 0.07 0.01 56 1007.0
20260507053036 57 0 2.6 7.0 0.00 0.07 0.01 59 1007.3
20260507050036 58 0 1.7 7.0 0.01 0.07 0.01 60 1007.1
20260507043016 60 0 0.9 5.2 0.01 0.07 0.01 60 1006.9
20260507040016 60 0 3.5 8.7 0.00 0.06 0.06 60 1007.2
20260507033016 59 0 4.3 11.3 0.00 0.06 0.06 60 1007.0
20260507030016 59 0 3.5 10.4 0.00 0.06 0.06 60 1006.6
20260507023015 59 0 3.5 10.4 0.00 0.06 0.06 60 1006.8
20260507020040 59 0 3.5 9.6 0.00 0.06 0.06 60 1006.9
20260507013015 58 0 4.3 9.6 0.00 0.06 0.06 60 1007.0
20260507010015 58 0 4.3 12.2 0.00 0.06 0.06 59 1007.2
20260507003015 58 0 4.3 9.6 0.01 0.06 0.06 59 1007.1
20260507000015 58 0 4.3 12.2 0.01 0.06 0.06 58 1006.7
20260506233015 59 0 4.3 10.4 0.00 0.05 0.05 58 1006.7
20260506230015 60 0 4.3 12.2 0.01 0.05 0.05 58 1006.7
20260506223015 60 0 4.3 11.3 0.02 0.05 0.05 58 1007.0
20260506220015 61 0 4.3 12.2 0.02 0.04 0.04 58 1007.2
20260506213015 61 0 6.1 13.0 0.01 0.03 0.03 58 1007.6
20260506210035 62 0 7.0 15.6 0.00 0.02 0.02 58 1007.5
20260506203015 62 0 6.1 16.5 0.02 0.02 0.02 57 1007.8
20260506200017 64 0 4.3 11.3 0.02 0.02 0.02 54 1007.6
20260506193017 66 0 5.2 13.0 0.00 0.00 0.00 50 1007.9
20260506190019 68 0 6.1 13.9 0.00 0.00 0.00 46 1007.9
20260506183017 70 0 7.0 19.1 0.00 0.00 0.00 44 1008.0
20260506180017 72 0 7.8 18.2 0.00 0.00 0.00 41 1008.1
20260506173017 73 0 7.8 23.5 0.00 0.00 0.00 40 1008.7
20260506170037 72 0 7.0 17.4 0.00 0.00 0.00 42 1008.6
20260506163016 72 0 6.1 20.0 0.00 0.00 0.00 43 1009.1
20260506160017 72 0 6.1 13.9 0.00 0.00 0.00 43 1009.5
20260506153016 72 0 7.0 17.4 0.00 0.00 0.00 42 1010.0
20260506150016 72 0 6.1 16.5 0.00 0.00 0.00 43 1009.9
20260506143016 71 0 8.7 17.4 0.00 0.00 0.00 44 1010.1
20260506140016 69 0 7.0 22.6 0.00 0.00 0.00 45 1010.1
20260506133037 67 0 5.2 15.6 0.00 0.00 0.00 47 1010.9
20260506130016 65 0 5.2 11.3 0.00 0.00 0.00 50 1010.7
20260506123016 63 0 5.2 12.2 0.00 0.00 0.00 53 1011.1
20260506120016 61 0 5.2 12.2 0.00 0.00 0.00 54 1011.2
20260506113016 61 0 4.3 10.4 0.00 0.00 0.00 55 1011.5
20260506110016 60 0 3.5 9.6 0.00 0.00 0.00 56 1011.2
20260506103016 60 0 3.5 7.0 0.00 0.00 0.00 55 1011.4
20260506100036 60 0 3.5 12.2 0.00 0.00 0.00 55 1011.2
20260506093016 60 0 3.5 9.6 0.00 0.00 0.00 55 1011.1
20260506090016 61 0 3.5 9.6 0.00 0.00 0.00 54 1011.1
20260506083036 61 0 4.3 10.4 0.00 0.00 0.00 53 1011.2